sat.trackr.live / text

‹ back to catalog

STARLINK-4738

NORAD 53819 · 2022-114B

PAYLOAD ACTIVE UNKNOWN

§ Identity

Operator
Country
US
Launch date
2022-09-19
Launch site
AFETR
Launch vehicle
Mass (kg)
RCS (m²)

Purposes: comms

External: N2YO · Heavens-Above · Gunter

§ Orbital elements

Epoch: 2026-09-20T22:16:01.916544Z

Period
94.01 min
Inclination
53.1592°
Eccentricity
0.0001626
Mean motion
15.31707666 rev/d
Perigee alt
469.6 km
Apogee alt
471.8 km
Semi-major
6,848.9 km
B*
2.3158e-5
RAAN
133.8343°
Arg perigee
97.5805°
Mean anomaly
262.5381°
Rev number
22,249

§ Raw data

STARLINK-47381 53819U 22114B   26263.92779996  .00000353  00000+0  23158-4 0  99962 53819  53.1592 133.8343 0001626  97.5805 262.5381 15.31707666222495

JSON: /api/v1/satellites/53819 · /tle

For live sub-satellite position, see the globe view (requires WebGL).

§ Visibility from observer

Set your observer location to see the next 7 days of passes ≥ 10°. The values pass through the URL so the page stays shareable.

No JS? Fill the form by hand. The geolocation button needs JavaScript.